This demonstration page uses our WeatherBlox Daily Observations layout. Learn more.

Left ArrowRight Arrow

39.92423, -83.80882

Hourly Observations for June 13, 2022

Temp ( °F °C ) Dew Point ( °F °C ) Humidity (%) Winds ( mph kmh ) Pressure ( in mb ) Visibility ( mi km ) Precip ( " mm )
12:56 am 00:56 Mostly Clear N/A N/A N/A SSE 7 11 N/A 10 16 0.00 0.00
1:56 am 01:56 Mostly Clear 72 22 N/A N/A S 8 13 29.90 1012 10 16 0.00 0.00
2:56 am 02:56 Clear 72 22 N/A N/A S 3 6 29.88 1012 10 16 0.00 0.00
3:56 am 03:56 Clear 72 22 N/A N/A SSE 5 7 29.89 1012 10 16 0.00 0.00
4:56 am 04:56 Mostly Cloudy with Haze N/A N/A N/A Calm N/A 6 10 0.00 0.00
5:47 am 05:47 Cloudy with Haze N/A N/A N/A Calm N/A 6 10 0.00 0.00
5:56 am 05:56 Mostly Cloudy N/A N/A N/A Calm N/A 7 11 0.00 0.00
6:19 am 06:19 Sunny with Mist and Fog N/A N/A N/A Calm N/A 1 1 0.00 0.00
6:21 am 06:21 Mostly Cloudy with Fog N/A N/A N/A Calm N/A 0 0 0.00 0.00
6:31 am 06:31 Mostly Cloudy with Mist and Fog N/A N/A N/A Calm N/A 1 1 0.00 0.00
6:40 am 06:40 Mostly Cloudy with Fog N/A N/A N/A Calm N/A 1 1 0.00 0.00
6:51 am 06:51 Sunny with Mist and Fog N/A N/A N/A Calm N/A 1 2 0.00 0.00
6:56 am 06:56 Sunny with Mist and Fog N/A N/A N/A Calm N/A 2 3 0.00 0.00
7:03 am 07:03 Hazy N/A N/A N/A ESE 3 6 N/A 4 6 0.00 0.00
7:56 am 07:56 Sunny N/A N/A N/A Calm N/A 10 16 0.00 0.00
8:56 am 08:56 Sunny 77 25 77 25 100 100 WSW 3 6 29.96 1015 10 16 0.00 0.00
9:56 am 09:56 Sunny 81 27.2 75 23.9 82 82 Calm 29.91 1013 10 16 0.00 0.00
10:56 am 10:56 Sunny 83 28.3 75 23.9 77 77 Calm 29.91 1013 10 16 0.00 0.00
11:56 am 11:56 Partly Cloudy 84 28.9 77 25 80 80 VRB 6 9 29.92 1013 10 16 0.00 0.00
12:56 pm 12:56 Mostly Cloudy 85 29.4 76 24.4 75 75 S 6 9 29.92 1013 10 16 0.00 0.00
1:56 pm 13:56 Partly Cloudy 88 31.1 77 25 70 70 VRB 5 7 29.93 1014 10 16 0.00 0.00
2:56 pm 14:56 Mostly Cloudy 89 31.7 77 25 68 68 SSW 5 7 29.93 1013 10 16 0.00 0.00
3:56 pm 15:56 Mostly Sunny 90 32.2 76 24.4 63 63 SSW 6 9 29.90 1013 10 16 0.00 0.00
4:56 pm 16:56 Mostly Cloudy 89 31.7 77 25 68 68 S 7 11 29.87 1011 10 16 0.00 0.00
5:56 pm 17:56 Partly Cloudy 85 29.4 80 26.7 85 85 SSW 5 7 29.87 1011 10 16 0.00 0.00
6:25 pm 18:25 Mostly Cloudy with Nearby Thunderstorms 84 29 81 27 89 89 SSW 7 11 29.88 1012 10 16 0.00 0.00
6:34 pm 18:34 Mostly Cloudy with Thunderstorms 73 23 73 23 100 100 WSW 22 35 29.91 1013 4 6 0.00 0.00
6:56 pm 18:56 Cloudy with Strong Thunderstorms 72 22 N/A N/A SW 6 9 29.89 1012 7 11 0.07 1.78
7:30 pm 19:30 Partly Cloudy with Light Rain 72 22 N/A N/A NNW 10 17 29.83 1010 10 16 0.02 0.51
7:56 pm 19:56 Sunny with Light Rain 73 23 N/A N/A WSW 7 11 29.90 1013 10 16 0.02 0.51
8:18 pm 20:18 Partly Cloudy with Nearby Thunderstorms 72 22 N/A N/A S 6 9 29.89 1012 10 16 0.01 0.25
8:43 pm 20:43 Mostly Cloudy with Light Rain 72 22 N/A N/A S 6 9 29.87 1012 10 16 0.01 0.25
8:56 pm 20:56 Partly Cloudy with Light Rain 72 22 N/A N/A SSE 5 7 29.87 1011 10 16 0.02 0.51
9:56 pm 21:56 Clear N/A N/A N/A Calm N/A 10 16 0.00 0.00
10:56 pm 22:56 Clear N/A N/A N/A ESE 3 6 N/A 10 16 0.00 0.00
11:56 pm 23:56 Clear N/A N/A N/A E 8 13 N/A 10 16 0.00 0.00

Powered by AerisWeather